Flag for Spain Weather past 2 weeks in Barcelona, Barcelona, Spain

Now
77 °F

Passing clouds.


Feels Like: 79 °F
Forecast: 65 / 85 °F
Wind: 7 mph from East

Location: Barcelona Airport

Current Time: Aug 27, 2014 at 7:38:42 PM

Latest Report: Aug 27, 2014 at 7:00 PM


Visibility: N/A

Pressure: 29.98 "Hg

Humidity: 69%

Dew point: 66 °F

Location of BarcelonaLocation

Historic Weather in Barcelona — Graph

°F

Barcelona temperature yesterday

Maximum temperature yesterday: 82 °F (at 4:00 PM)
Minimum temperature yesterday: 72 °F (at 5:00 AM)
Average temperature yesterday: 77 °F

Past Weeks' High & Low Weather Summary

 TemperatureHumidityPressure
High90 °F (Aug 13, 11:30 AM)100% (Aug 23, 12:00 AM)30.18 "Hg (Aug 23, 12:00 AM)
Low64 °F (Aug 22, 10:04 PM)31% (Aug 13, 12:00 PM)29.71 "Hg (Aug 13, 6:00 AM)
Average75 °F70%30.00 "Hg
* Reported Aug 12 6:00 PM — Aug 27 6:30 PM, Barcelona, Weather by CustomWeather, © 2014

Note: Actual official high and low records may vary slightly from our data, if they occured in-between our weather recording intervals... More about our weather records

Advertising

Barcelona weather history for previous 24 hours

 ConditionsComfort  
Time TempWeatherWind HumidityBarometerVisibility
6:30 PM
Aug 27
79 °FPassing clouds.8 mph70%29.98 "HgN/A
6:00 PM79 °FPassing clouds.8 mph70%29.98 "HgN/A
5:00 PM81 °FPassing clouds.10 mph62%29.98 "HgN/A
4:30 PM81 °FPassing clouds.9 mph66%29.98 "HgN/A
4:00 PM81 °FPassing clouds.10 mph66%29.98 "HgN/A
3:30 PM81 °FScattered clouds.8 mph66%29.98 "HgN/A
3:00 PM81 °FScattered clouds.10 mph66%29.98 "HgN/A
2:30 PM82 °FPassing clouds.10 mph62%29.98 "HgN/A
2:00 PM82 °FPassing clouds.8 mph58%29.98 "HgN/A
1:30 PM82 °FPassing clouds.10 mph58%29.98 "HgN/A
1:00 PM82 °FPassing clouds.12 mph55%30.01 "HgN/A
12:30 PM82 °FPassing clouds.12 mph55%30.01 "HgN/A
12:00 PM82 °FSunny.13 mph51%30.01 "Hg10 mi
11:30 AM81 °FPassing clouds.13 mph58%29.98 "HgN/A
11:00 AM81 °FPassing clouds.12 mph54%29.98 "HgN/A
10:30 AM81 °FPassing clouds.8 mph58%29.98 "HgN/A
10:00 AM79 °FPassing clouds.8 mph65%29.98 "HgN/A
9:30 AM77 °FPassing clouds.3 mph69%29.98 "HgN/A
9:00 AM75 °FPassing clouds.5 mph69%29.95 "HgN/A
8:30 AM73 °FPassing clouds.5 mph74%29.95 "HgN/A
8:00 AM72 °FPassing clouds.6 mph78%29.95 "HgN/A
7:30 AM72 °FClear.5 mph73%29.95 "Hg10 mi
7:00 AM73 °FClear.2 mph69%29.95 "Hg10 mi
6:30 AM73 °FClear.1 mph69%29.95 "Hg10 mi
6:00 AM73 °FClear.2 mph69%29.92 "Hg10 mi
5:30 AM73 °FClear.6 mph69%29.92 "Hg10 mi
5:00 AM73 °FClear.6 mph74%29.92 "Hg10 mi
4:30 AM75 °FClear.6 mph65%29.92 "Hg10 mi
4:00 AM75 °FClear.7 mph65%29.92 "Hg10 mi
3:30 AM75 °FClear.6 mph65%29.92 "Hg10 mi
3:00 AM75 °FClear.6 mph69%29.92 "Hg10 mi
2:30 AM75 °FClear.5 mph69%29.92 "Hg10 mi
2:00 AM75 °FPassing clouds.2 mph74%29.92 "HgN/A
1:30 AM75 °FPassing clouds.1 mph78%29.92 "HgN/A
1:00 AM77 °FPassing clouds.2 mph79%29.95 "HgN/A
12:30 AM77 °FPassing clouds.1 mph79%29.92 "HgN/A
12:00 AM77 °FPassing clouds.1 mph79%29.92 "HgN/A
11:30 PM
Aug 26
77 °FPassing clouds.6 mph79%29.92 "HgN/A
11:00 PM77 °FPassing clouds.6 mph83%29.92 "HgN/A
10:30 PM77 °FPassing clouds.7 mph83%29.92 "HgN/A
10:00 PM77 °FPassing clouds.7 mph83%29.92 "HgN/A
9:30 PM77 °FPassing clouds.7 mph83%29.92 "HgN/A
9:00 PM77 °FPassing clouds.8 mph83%29.89 "HgN/A
8:30 PM79 °FPassing clouds.10 mph79%29.89 "HgN/A
8:00 PM79 °FPassing clouds.12 mph79%29.89 "HgN/A
7:30 PM81 °FPassing clouds.8 mph74%29.86 "HgN/A
7:00 PM81 °FPassing clouds.7 mph79%29.86 "HgN/A
Weather by CustomWeather, © 2014

See weather overviewHow to use our weather pages